THOR ABLESTAR DEB, 753

Orbit data source: Space-Track

THOR ABLESTAR DEB, 753 is space debris in LEO originally from a launch on Thu, 05 Dec 1963 UTC launched from the Air Force Western Test Range (AFWTR). Debris objects in space refer to the collection of defunct objects orbiting the Earth. Examples of debris include non-operational satellites, rocket bodies, and fragments generated from explosions, collisions, or faulty payload assembly.

Loading next visibility...
THOR ABLESTAR DEB details
Identifier
753, 1963-049F
Orbit
LEO
Last TLE update18 hours ago
Origin
Flag of USUSN BuWeps (US)
ManufacturerUnknown
MissionSpacecraft
Bus & MotorUnknown
MassUnknown
Launch date (UTC)
1963-12-05 (61 years ago)
Launch vehicleUnknown
Launch site
Air Force Western Test Range (AFWTR)
Object type
Payload
Rocket body
Debris
Shape & HBRUnknown
Radar Cross SectionSmall (<0.1 m²)

Expand to show TLE details & history

TLE from 18 hours ago
0 THOR ABLESTAR DEB
1 00753U 63049F   24355.75369124  .00000324  00000-0  45973-3 0  9993
2 00753  89.9142  77.5644 0025641 347.1353 141.4535 13.54592716  6975
Epoch: 2024-12-20T18:05Z
Definitive object data (Epoch: 2024-12-20T18:05:18.923Z)
Latitude51.32252°
Longitude-103.68575°
Altitude1,078.672 km
Speed7.31 km/s
True Right ascension17h 09m 49s
True Declination51° 09' 43"
Sunlit
Object was in daylight at TLE epoch
Visualization TLE readout
Latitude-12.04012°
Longitude-103.56747°
Altitude1,077.706 km
Speed7.304 km/s
Apparent Right ascension19h 25m 36s
Apparent Declination-32° 33' 08"
Sunlit
Object is in daylight
Visualization observer readout
Local Sidereal Time11:09:29
Azimuth98.949° ESE
Elevation-44.997°
Doppler factor1
Orbital elements
Apogee altitude1,071.505 km
Perigee altitude1,033.399 km
Semi-major axis7,430.589 km
Eccentricity0.0025641
Inclination89.9142°
RAAN77.5644°
Arg. of periapsis347.1353°
True anomaly141.63614°
Mean anomaly141.4535°
Eccentric anomaly141.54486°
Mean motion3.38851 °/min
BSTAR0.00045973
Orbital period106.24 mins
Loading maneuver chart data...
Loading historical data...
Loading historical data...
Loading historical data...
Loading historical data...
Loading historical data...
Loading historical data...
Loading historical data...

THOR ABLESTAR DEB Visibility forecast

Observer location: undefined°, undefined

Span
Click to sort rows by Start time (UTC) header in descending order
Start Az.
Max El. time (UTC)
Max El. Az.
Max El.
End time (UTC)
End Az.
11 mins2024-12-21 17:05:44.058Z21.552° NNE2024-12-21 17:11:44.058Z90.345° ESE29.28°2024-12-21 17:16:44.058Z144.977° SSE
10 mins2024-12-21 18:52:44.058Z340.348° N2024-12-21 18:57:44.058Z276.094° WNW31.408°2024-12-21 19:02:44.058Z219.536° SW
9 mins2024-12-22 05:02:44.058Z128.917° SE2024-12-22 05:06:44.058Z79.695° E27.779°2024-12-22 05:11:44.058Z21.359° NNE
10 mins2024-12-22 06:48:44.058Z216.468° SW2024-12-22 06:52:44.058Z272.753° WNW32.344°2024-12-22 06:58:44.058Z342.16° N
|